Theta_e
314 313 313 313 313 313 313 313 313 313 313 312 312 312 311 311 311 310 310 309 309 308 308 307 306 305 305 304 304 304 304 305 305 306 307 308 307 307 307 307 307 307 306 306 306 306 306 306 306 306 305 304 304 303 303 303 303 303 303 303 303 303 304 304 304 304 304 304 304 304 304 305 306 306 308 308 309 310 312 314 315 317 321 326 328
313 313 313 312 312 312 312 312 312 312 312 312 312 311 311 310 310 309 309 308 308 307 307 306 305 304 304 303 303 303 303 303 304 305 306 307 307 306 306 306 306 306 306 306 305 305 305 305 305 304 303 303 302 302 302 301 301 301 301 301 301 302 302 302 303 303 303 303 303 303 303 304 305 305 306 307 308 309 311 313 315 316 318 321 324
313 312 312 312 312 312 311 311 311 311 311 311 311 310 310 309 308 308 308 307 307 307 306 306 305 304 303 302 302 301 301 302 303 304 305 307 307 306 306 306 305 305 305 305 304 304 304 304 304 303 302 302 301 301 300 300 300 300 300 300 300 300 300 301 301 301 302 302 302 303 303 303 304 304 305 306 307 308 310 312 313 315 316 318 321
312 312 312 312 311 311 311 311 311 310 310 310 309 309 309 308 308 307 307 307 307 306 305 304 304 303 302 301 301 300 299 300 301 303 304 306 306 306 305 305 305 305 305 304 304 303 303 303 303 302 301 301 300 300 300 299 299 299 299 299 299 299 299 299 300 300 300 301 301 302 302 303 303 304 304 305 306 308 309 310 311 312 314 316 318
311 311 311 311 311 311 310 310 310 310 309 309 309 308 308 307 307 307 306 306 306 306 305 304 303 302 301 301 300 298 297 297 299 301 303 305 306 305 305 305 305 304 304 303 303 303 302 302 302 301 301 300 300 299 299 299 299 299 298 298 298 298 298 298 299 299 299 300 301 301 301 302 302 303 304 305 306 307 308 309 309 311 313 315 317
311 311 311 310 310 310 310 310 310 309 309 308 308 307 307 307 307 306 306 306 306 305 305 304 303 302 301 300 298 296 295 296 298 300 302 304 305 305 305 305 304 304 303 303 302 302 302 302 301 301 300 300 299 298 299 298 298 298 298 298 297 297 297 297 298 298 299 299 300 300 301 301 302 302 303 304 305 305 306 308 309 310 311 312 313
311 311 311 310 310 310 310 309 309 308 308 308 307 307 307 307 307 306 306 305 305 305 304 304 303 301 300 299 297 295 295 296 297 299 301 303 304 305 305 304 304 303 303 302 302 301 301 301 301 300 300 299 298 298 298 297 297 297 297 297 297 297 297 297 298 298 298 299 299 300 300 301 301 302 302 302 303 304 305 306 307 308 308 309 310
311 311 310 310 310 309 309 308 308 307 307 307 307 306 306 306 306 306 306 306 305 305 304 304 303 301 300 299 296 294 295 296 297 299 301 302 304 304 304 304 303 303 302 302 302 301 301 301 300 300 299 298 298 298 297 297 296 296 296 296 296 297 297 297 298 298 299 299 299 300 300 300 301 301 301 302 302 303 303 304 305 306 307 308 309
310 310 310 309 309 308 307 307 307 306 306 306 306 306 306 306 306 306 306 305 305 305 304 303 302 301 300 299 296 294 294 296 297 299 300 302 303 304 304 304 303 302 302 301 301 300 300 300 300 299 299 298 298 297 297 296 295 295 295 296 296 297 297 297 298 298 299 299 299 299 300 300 300 300 301 301 301 302 302 303 303 304 306 307 308
310 310 309 308 307 306 306 306 306 306 306 306 306 306 306 306 305 305 305 305 305 305 304 303 301 300 299 298 296 294 294 295 297 299 300 301 302 303 303 303 302 302 301 301 300 300 300 299 299 299 298 298 298 297 296 295 295 295 295 296 297 297 297 298 298 298 298 299 299 299 299 300 300 300 300 300 300 300 301 302 303 303 304 305 306
310 308 307 306 306 306 305 305 305 305 305 305 305 305 305 305 305 305 304 304 304 304 304 303 301 300 298 296 295 294 293 295 297 299 300 301 302 303 303 302 302 301 301 300 300 300 299 299 298 298 298 298 297 296 295 295 296 296 296 297 297 297 297 298 298 298 298 299 299 299 299 299 298 298 298 298 298 299 299 300 301 301 302 303 304
308 307 306 305 305 305 305 305 305 304 304 304 304 304 304 304 304 304 304 304 304 304 304 304 302 301 298 295 293 293 293 294 297 299 300 301 301 302 302 302 302 301 300 300 300 299 299 298 298 298 298 297 297 295 294 295 296 296 296 297 297 297 297 298 298 298 298 298 298 297 297 297 297 297 297 297 297 298 298 298 299 300 301 302 302
306 306 305 305 305 304 304 304 304 303 303 303 303 304 304 304 304 304 304 304 304 304 304 304 303 302 300 296 293 293 293 294 296 299 300 300 301 302 302 302 301 301 300 300 300 299 299 298 298 297 297 297 296 295 294 295 296 296 297 297 297 297 297 297 298 297 297 297 297 297 297 296 296 297 297 297 297 297 297 297 298 299 300 301 302
306 305 305 304 304 303 303 302 302 302 303 303 303 304 304 304 304 304 304 303 303 303 303 303 303 303 302 298 294 292 293 294 295 298 299 300 301 302 302 302 301 301 300 300 300 299 298 298 297 296 296 296 296 295 295 295 295 297 297 297 297 297 297 297 297 297 296 296 296 296 296 296 296 296 297 296 296 296 296 296 297 298 299 300 301
305 304 304 303 302 302 302 302 303 303 303 303 304 303 304 304 304 304 304 303 303 303 302 303 303 302 302 299 294 293 293 293 294 297 299 300 300 301 301 301 301 301 300 299 299 298 297 297 296 295 296 296 295 295 295 295 295 296 297 298 297 297 297 297 297 296 296 296 296 296 297 297 296 297 297 296 296 296 295 295 296 297 298 299 300
303 303 302 302 301 302 302 303 303 304 303 303 303 303 303 303 303 303 303 303 303 302 301 302 302 302 302 300 296 295 295 294 293 295 297 299 299 300 300 300 301 300 300 299 299 298 297 297 296 295 295 295 295 295 295 295 296 296 297 298 297 297 297 297 296 296 296 296 297 297 297 297 297 297 296 296 296 295 295 295 295 297 298 299 300
302 302 302 301 302 302 302 302 303 303 303 303 303 303 303 303 303 303 303 302 302 302 301 300 300 300 301 301 299 298 297 295 293 293 295 297 298 298 298 299 300 300 300 299 299 298 298 297 297 296 295 295 295 295 295 295 296 296 297 297 297 297 297 296 296 297 297 297 297 297 297 297 297 297 296 295 295 295 294 295 295 297 298 299 300
303 303 303 302 302 302 302 302 302 302 303 303 302 302 302 302 302 302 302 302 302 302 301 300 299 298 299 300 300 300 299 297 293 292 293 295 297 298 297 297 298 298 299 300 299 299 298 298 297 296 295 295 295 295 295 296 296 296 296 297 297 296 297 296 297 297 297 297 297 297 297 297 297 297 296 295 294 294 294 294 295 296 298 299 300
303 303 302 302 302 302 302 302 302 302 303 302 302 302 301 301 302 301 302 302 302 302 302 302 301 300 299 299 299 300 300 298 294 292 293 293 294 296 296 296 296 297 298 299 299 299 299 298 297 296 295 295 295 295 296 296 296 296 296 296 296 296 296 296 297 297 297 297 297 297 297 297 297 297 295 294 294 293 293 294 294 295 297 299 300
303 302 302 302 302 302 302 302 302 303 303 303 302 302 302 302 302 302 302 302 302 302 302 302 302 302 301 300 300 299 299 298 294 293 294 294 294 294 295 295 294 295 297 298 299 298 298 298 297 296 295 295 295 295 296 296 296 296 296 296 296 296 296 297 297 297 297 297 297 297 297 297 297 296 295 294 293 293 293 293 293 294 297 298 299
303 302 302 302 302 302 302 302 302 302 302 303 302 302 302 301 302 302 302 302 302 302 302 302 302 302 301 301 301 300 298 298 295 292 293 294 294 294 294 294 294 295 296 297 298 298 298 298 297 296 296 295 295 296 296 296 296 296 296 296 296 296 296 296 297 297 297 297 297 296 297 297 296 296 295 294 293 293 293 293 293 294 295 297 299
302 302 302 302 302 302 302 302 302 302 303 303 303 303 302 302 302 302 302 302 302 302 302 302 302 302 301 301 301 300 299 298 296 293 293 294 294 294 294 294 294 295 295 297 298 298 297 297 297 296 296 296 295 296 296 296 296 296 296 296 296 296 296 296 296 297 297 296 296 296 297 296 296 296 295 294 293 293 292 293 293 293 294 296 299
302 302 302 302 302 302 302 302 302 303 302 303 303 303 303 303 302 302 302 302 302 302 302 302 302 301 300 300 299 299 299 298 297 294 293 294 294 294 294 294 294 295 296 296 297 297 296 296 296 296 296 296 296 296 296 296 296 295 296 296 296 296 296 296 296 296 296 296 296 296 297 296 296 296 295 294 293 293 292 292 292 293 294 296 298
302 302 302 303 303 303 303 303 303 303 303 302 303 303 303 303 303 303 302 302 302 301 301 302 302 301 301 299 298 298 298 298 296 295 294 293 293 294 294 294 294 295 296 296 296 295 296 296 296 296 296 296 296 296 296 296 295 295 296 296 296 295 295 295 296 296 296 296 296 296 296 296 296 296 295 294 293 293 292 292 292 292 293 295 296
303 303 303 303 303 303 304 304 303 303 303 303 303 303 303 302 302 302 302 301 301 301 301 301 301 301 301 300 298 297 296 296 296 295 294 292 292 293 294 294 294 295 296 296 295 295 295 296 297 297 296 296 296 296 296 296 295 295 296 296 295 295 295 295 295 296 296 295 295 296 296 296 296 296 295 294 294 293 293 292 292 292 293 295 296
303 303 303 303 303 303 304 304 304 303 303 303 303 303 303 303 302 302 302 301 300 300 301 300 300 300 300 300 298 297 296 295 294 293 292 291 291 292 293 294 294 294 295 295 294 295 296 296 297 297 297 296 296 295 296 296 295 295 296 296 295 295 295 295 295 295 295 295 295 296 296 296 296 296 295 295 294 293 293 292 292 292 292 293 294
303 303 302 302 302 303 304 304 304 304 303 303 303 303 303 303 302 302 302 301 301 300 301 301 300 299 299 299 298 297 296 294 293 291 291 290 291 292 293 293 294 294 294 294 294 295 296 296 297 297 296 296 296 295 295 295 296 295 296 296 295 295 295 295 295 295 295 295 295 295 296 296 296 296 296 295 294 294 293 293 292 292 292 292 292
302 302 302 302 302 303 304 304 304 303 303 303 303 302 302 302 302 302 302 302 302 301 301 301 301 299 298 298 298 297 296 294 292 291 291 291 292 293 294 294 294 294 294 294 294 295 296 296 296 296 296 296 295 295 294 295 295 295 295 296 295 295 295 295 294 294 295 295 295 295 295 296 296 296 296 295 295 294 293 293 292 292 292 292 292
302 302 302 302 303 303 303 303 303 303 303 303 303 302 301 300 299 299 300 301 302 301 300 301 302 300 298 297 297 296 296 294 292 291 291 292 293 294 294 295 295 295 294 294 295 295 296 296 296 296 296 295 295 295 294 294 295 295 295 295 295 295 294 294 294 294 294 294 294 295 295 296 296 296 296 296 295 294 294 293 293 292 292 292 292
302 302 302 303 303 303 302 302 303 303 303 302 302 302 301 299 296 295 295 298 299 298 296 297 300 301 300 298 296 295 294 292 292 292 292 293 294 295 295 295 295 295 295 295 295 295 296 296 296 296 296 295 295 295 295 294 295 295 295 295 295 295 294 294 294 294 294 294 294 294 294 295 296 296 296 296 295 295 294 293 293 293 292 292 292
303 302 303 303 303 302 302 302 303 303 302 301 301 300 298 296 294 293 293 294 294 293 292 293 296 299 300 298 295 293 293 292 292 292 293 294 295 296 296 296 296 296 296 295 296 296 296 296 296 296 296 295 295 295 294 294 294 295 295 295 295 295 294 294 294 294 294 294 294 294 294 295 295 296 296 296 296 295 294 294 293 293 292 292 292
303 303 304 303 302 302 302 303 302 301 299 298 298 297 296 295 294 294 294 293 293 293 292 292 293 294 295 294 294 293 293 293 292 292 293 294 296 296 296 296 297 296 296 296 296 296 296 296 296 296 295 295 295 295 294 294 294 294 294 294 294 294 294 294 293 293 294 294 294 294 294 294 295 295 296 296 296 296 295 294 294 293 293 292 292
303 304 303 302 301 302 303 303 302 300 299 298 297 297 297 297 296 295 295 295 295 295 294 292 292 293 293 292 292 292 292 292 292 293 293 295 296 296 297 297 297 297 297 297 296 296 296 296 296 296 295 295 295 294 294 294 294 294 294 294 294 294 293 293 293 293 293 294 294 294 294 294 295 295 295 296 296 296 296 295 294 293 293 293 292
303 303 302 301 301 302 303 302 302 302 301 300 300 300 300 300 298 297 296 295 295 296 296 294 294 295 295 294 292 291 292 293 294 294 294 296 297 297 297 298 298 298 298 297 296 296 296 296 296 296 295 295 295 294 294 294 293 294 293 293 293 293 292 292 293 292 292 293 294 294 293 294 294 295 295 296 296 296 296 296 295 294 293 293 293
303 303 302 301 302 303 302 302 302 302 302 302 302 302 302 302 301 299 299 298 297 297 297 296 296 296 297 297 296 294 294 295 296 296 295 296 296 296 297 298 298 298 298 298 297 296 296 296 296 295 295 295 294 294 294 294 293 293 293 293 293 292 292 292 292 292 292 293 293 293 293 294 294 294 295 295 296 296 296 296 296 295 294 293 293
303 302 301 301 302 303 302 302 302 302 302 302 302 302 302 302 301 301 301 300 300 299 299 299 298 298 298 298 298 297 296 297 297 297 297 297 296 296 297 298 298 298 298 297 297 296 296 296 296 295 295 295 294 294 294 293 293 293 293 292 292 292 291 292 292 291 291 292 293 293 293 293 294 294 294 295 295 296 296 296 296 296 295 295 294
303 302 300 300 302 303 302 302 302 302 302 302 302 302 301 301 300 301 301 301 301 301 300 300 300 299 298 298 298 298 297 297 297 297 297 297 297 297 297 298 298 298 297 297 298 297 296 296 296 295 295 295 294 294 294 293 293 293 293 293 292 292 291 291 291 291 291 291 292 292 292 293 293 294 294 294 295 296 296 296 296 296 296 296 295
303 302 301 300 302 303 302 302 302 302 302 302 302 302 301 301 300 301 301 301 301 300 300 300 301 300 299 299 299 299 298 298 298 298 298 298 298 298 298 298 299 298 298 297 298 297 297 296 296 295 295 295 295 295 294 293 293 293 293 293 292 292 291 291 291 291 291 291 291 292 292 292 293 293 294 294 295 295 296 296 296 296 296 296 296
303 302 300 300 302 302 302 302 302 302 301 302 302 301 301 301 301 301 301 301 301 300 299 299 300 301 300 300 300 299 299 298 298 298 298 298 298 298 298 298 298 298 298 298 298 298 297 296 296 295 295 295 295 295 295 294 294 293 293 293 293 292 291 291 291 291 291 291 291 291 291 291 292 293 293 293 294 295 296 296 296 296 296 296 296
304 302 300 300 302 302 302 302 301 301 301 301 301 301 301 301 301 301 300 300 300 300 300 299 300 300 301 301 300 299 298 297 296 296 297 298 299 298 298 298 298 298 298 298 298 298 297 297 296 295 295 294 294 295 295 295 294 294 294 294 293 292 292 291 291 291 291 290 291 291 291 291 291 292 293 293 293 294 295 295 295 295 295 296 296
303 301 300 301 302 302 302 302 301 301 301 300 300 300 301 301 300 300 300 300 300 300 300 300 300 300 300 300 300 299 298 297 296 295 296 298 299 299 298 298 298 298 298 298 298 298 297 297 296 296 295 295 294 294 295 295 295 294 294 294 293 293 292 292 291 291 291 290 291 291 291 290 291 291 292 292 293 293 294 295 295 295 295 295 296
302 300 300 300 301 301 302 302 301 301 300 300 300 300 301 301 301 300 300 300 300 300 300 300 300 300 300 300 300 299 299 298 297 296 296 297 298 299 299 298 298 298 298 298 298 298 297 297 296 296 295 295 295 294 294 295 295 295 295 294 294 293 292 292 291 291 291 291 291 291 291 290 290 290 290 291 292 293 293 294 294 295 295 295 295
301 300 299 299 300 301 301 301 301 301 300 300 300 300 301 301 301 300 300 299 299 299 300 300 300 300 300 300 299 299 298 298 297 297 297 297 299 299 299 298 298 298 298 298 297 297 297 297 296 296 295 295 295 295 294 294 295 295 295 295 294 293 293 292 291 291 291 291 291 292 291 290 290 290 290 290 291 292 292 293 293 294 295 295 295
301 300 298 299 300 301 301 301 301 301 301 301 301 301 300 300 300 300 300 299 299 299 299 299 299 299 300 299 299 298 298 298 298 298 298 299 299 299 298 298 298 298 298 298 297 297 297 297 296 296 295 295 295 294 294 294 294 295 295 295 294 294 293 292 292 292 292 291 291 292 291 291 290 290 290 290 290 291 291 292 292 293 294 294 294
301 300 299 299 300 300 300 301 301 301 301 301 301 301 300 300 300 300 300 300 299 299 299 299 299 299 299 299 299 299 299 299 299 299 299 299 299 299 298 298 298 298 298 298 297 297 297 297 297 296 295 295 295 294 294 294 294 294 295 295 295 294 293 293 292 292 292 292 291 292 292 291 291 290 290 290 290 290 290 291 291 292 293 293 294
302 301 300 299 299 299 300 300 301 301 301 301 301 301 300 300 300 300 300 300 300 300 299 299 299 299 299 299 299 299 299 299 299 299 299 299 298 298 298 298 298 298 298 298 297 297 297 297 296 296 296 296 295 295 294 294 294 294 295 295 295 295 294 293 293 292 292 292 292 291 292 292 291 291 290 290 290 290 290 290 290 291 292 292 293
302 302 301 300 299 299 299 300 300 300 301 301 301 301 301 301 300 300 300 299 299 299 299 299 299 299 299 299 299 299 299 299 299 299 299 299 298 298 298 298 297 297 297 297 297 297 297 296 296 296 296 296 296 295 295 294 294 294 295 295 295 295 294 294 294 293 292 292 292 292 292 292 292 291 291 290 290 290 290 290 290 290 291 292 292
302 302 302 301 301 300 300 300 301 300 301 301 301 301 301 301 301 301 300 300 299 299 299 299 299 299 299 299 299 299 299 299 299 299 299 299 299 299 298 298 297 297 297 297 297 297 297 296 296 296 296 296 296 296 295 295 295 295 295 295 295 295 295 294 294 293 293 292 292 292 292 292 292 291 291 291 291 290 290 290 290 290 290 291 292
302 302 302 302 301 301 301 301 301 301 301 301 301 301 301 301 301 301 301 300 300 300 300 299 299 299 299 299 299 299 299 299 299 299 299 299 299 299 299 299 298 298 297 297 297 297 297 297 296 296 296 296 296 296 295 295 295 295 295 295 295 295 295 294 294 294 293 293 293 293 292 292 292 291 291 291 291 291 291 290 290 290 290 291 291
302 302 302 302 302 302 302 302 302 301 301 301 301 301 301 301 301 301 300 300 300 300 300 300 300 300 300 300 300 300 300 300 300 300 300 299 299 299 299 299 299 298 298 297 297 297 297 297 296 296 296 296 296 295 296 296 296 295 295 295 295 295 295 295 295 294 294 293 292 293 293 292 292 292 292 292 292 292 291 291 291 290 290 291 291
302 302 303 302 302 302 302 302 302 302 302 302 301 301 301 301 301 301 300 300 300 300 300 300 300 300 300 300 300 300 300 300 300 300 300 300 300 299 299 299 299 298 298 298 297 297 297 297 297 297 296 296 296 296 296 296 296 295 295 295 295 295 295 295 295 295 294 293 292 293 293 293 293 292 292 292 292 292 292 292 291 291 291 291 291
Wind_Speed
16 14 15 15 15 15 14 14 13 13 13 13 13 13 13 13 13 13 13 14 14 14 14 15 15 15 16 16 17 17 17 17 16 16 15 15 15 15 16 16 16 16 16 16 17 17 17 18 19 21 21 21 21 20 20 21 21 21 20 20 20 19 20 19 15 16 22 25 25 28 29 30 30 28 29 31 32 31 31 30 29 29 29 29 27
15 15 16 15 15 15 15 14 14 14 14 14 14 14 13 13 13 14 14 14 14 14 14 15 15 16 16 17 17 17 17 16 16 15 15 15 15 15 16 16 16 16 16 17 17 17 18 19 20 20 20 20 20 20 20 22 22 21 21 20 21 21 20 21 19 18 22 26 26 27 28 28 28 29 29 29 31 32 32 31 30 29 29 29 29
15 15 16 15 15 15 15 15 15 15 15 14 14 14 13 14 13 14 14 14 14 15 15 15 15 16 17 17 17 18 17 16 15 15 14 14 14 14 15 15 15 16 16 17 17 17 18 18 18 19 20 20 20 21 21 23 22 21 22 22 22 22 22 21 22 21 23 26 27 27 28 28 28 29 29 29 29 30 30 31 30 29 29 30 31
16 15 16 16 15 15 15 15 15 15 15 14 14 14 14 14 14 14 14 14 14 15 15 15 16 16 17 18 18 18 18 16 14 14 13 13 13 14 14 14 14 15 16 16 16 16 17 17 17 19 19 19 20 21 21 23 23 22 23 23 22 23 23 22 23 23 24 25 26 26 27 29 29 28 29 29 29 28 28 29 31 31 31 30 31
16 16 16 16 15 15 16 16 15 15 15 14 14 14 14 14 14 14 14 14 14 14 15 15 16 17 17 17 17 18 19 17 14 12 11 11 12 13 14 14 14 14 15 15 15 16 16 16 17 18 19 20 21 21 22 23 23 22 23 24 23 23 24 24 24 24 24 25 26 26 27 27 28 28 28 28 29 29 28 27 29 31 30 29 29
16 15 15 16 16 16 16 15 15 15 14 14 14 14 14 14 14 14 14 15 15 15 15 15 16 16 16 17 18 19 19 18 15 12 10 10 12 12 13 13 14 14 14 14 15 16 16 16 17 18 18 19 21 22 22 23 25 25 24 24 24 23 24 24 24 24 25 25 25 26 26 26 27 28 28 28 29 30 30 28 26 27 30 32 32
15 15 15 16 16 15 15 14 15 14 14 14 14 14 14 14 14 14 14 14 14 14 15 15 15 15 16 16 19 20 19 18 17 14 11 11 12 12 12 13 13 13 13 14 14 16 16 16 18 18 17 19 22 22 23 25 27 26 24 23 23 23 23 24 24 24 25 25 25 26 26 25 26 27 28 29 28 27 27 27 26 26 31 34 35
15 15 15 15 15 15 15 14 14 14 14 14 14 14 14 14 14 14 14 14 14 14 14 14 14 15 15 16 19 21 20 18 17 16 14 12 12 12 12 12 13 13 13 13 14 16 16 16 17 17 17 20 22 22 26 29 28 25 23 23 23 23 23 23 24 24 24 24 24 25 25 26 25 26 28 28 27 26 25 25 26 27 28 30 32
15 15 15 15 15 15 15 15 15 14 14 14 14 14 14 14 14 14 14 14 14 14 14 14 14 14 14 14 17 21 21 18 16 15 14 13 12 12 12 11 12 12 12 12 13 15 15 15 15 15 17 20 21 24 29 30 27 24 23 23 23 24 25 26 25 24 23 23 24 25 25 25 25 26 26 25 26 28 28 27 26 26 27 29 29
16 16 15 15 15 15 14 15 14 14 14 14 14 14 14 14 15 14 15 14 13 13 14 14 15 15 15 14 16 21 22 18 14 12 11 12 12 12 12 11 10 11 12 12 12 13 15 15 14 15 17 19 21 27 33 34 29 24 22 22 24 26 27 27 25 24 23 23 24 25 24 24 26 27 27 27 28 29 29 28 26 26 27 26 26
16 16 16 16 15 15 15 15 14 14 14 14 14 14 14 15 15 15 15 14 13 13 13 13 14 14 15 15 17 21 22 18 13 11 10 11 11 11 11 9 9 10 11 11 12 13 13 14 14 15 17 19 23 29 34 36 31 25 24 24 24 24 25 26 27 27 24 21 22 25 24 25 28 29 29 30 29 29 29 29 28 27 25 21 20
17 17 17 16 16 15 15 15 15 14 14 14 14 15 15 15 15 15 14 14 13 13 12 11 12 12 13 17 20 21 21 18 13 11 11 11 11 11 10 9 8 10 10 10 11 12 13 15 15 16 17 17 22 28 32 35 32 26 26 26 24 23 24 25 26 27 24 21 22 24 24 26 29 30 30 31 31 32 32 32 29 27 25 22 20
18 17 17 16 16 15 15 15 15 14 15 15 15 15 15 15 15 14 14 13 13 12 11 11 10 10 11 16 20 20 20 18 13 10 9 9 9 9 9 9 8 9 11 11 10 11 13 15 15 17 17 16 21 27 30 33 31 26 26 27 25 25 26 24 23 25 25 23 23 24 26 28 30 32 34 35 34 34 32 32 30 27 27 25 24
18 18 17 16 16 16 15 16 15 15 15 14 14 14 14 14 14 13 13 13 13 12 11 10 9 9 9 13 19 21 20 19 14 10 9 9 9 9 8 8 7 9 11 12 10 12 14 15 15 17 18 17 22 28 30 31 29 24 24 26 27 27 27 25 25 27 27 25 25 29 32 34 36 39 41 40 38 35 33 33 33 30 31 31 31
19 18 18 16 16 16 16 16 15 14 14 14 14 14 13 13 13 12 12 12 12 11 11 9 9 9 8 9 17 22 22 20 15 12 10 10 11 11 9 8 8 8 11 11 10 13 14 13 16 21 20 19 24 27 28 29 28 24 23 25 27 27 26 26 28 30 29 29 31 34 37 38 39 41 43 42 40 39 37 36 35 34 34 34 32
19 19 18 17 17 17 16 16 16 15 14 14 14 14 14 13 13 13 12 12 11 11 10 9 9 9 8 7 12 18 22 22 17 14 12 11 13 14 11 10 10 10 11 10 8 11 13 12 17 24 23 22 26 28 27 27 26 25 24 24 27 28 26 28 31 31 30 31 34 35 36 38 38 39 40 40 40 40 38 35 32 30 29 27 24
20 19 19 18 17 17 16 16 16 15 15 15 14 14 13 13 12 12 12 11 11 10 10 10 9 9 8 5 7 11 17 21 19 17 15 13 14 16 14 12 12 13 13 11 7 9 11 10 17 25 25 25 28 28 26 25 25 25 24 25 29 30 30 32 33 32 32 35 37 36 36 38 38 38 38 38 37 37 35 31 28 26 24 18 15
20 19 19 18 18 17 16 16 16 16 15 15 14 14 13 13 12 11 11 11 10 10 10 9 9 10 9 8 6 5 10 17 19 19 19 17 15 16 15 15 14 14 15 14 10 9 9 11 18 24 25 25 27 28 26 23 24 25 23 25 28 30 33 35 33 31 34 38 39 39 39 39 38 37 38 39 38 35 31 28 27 28 25 19 16
20 20 20 19 18 17 17 17 16 16 15 14 14 13 13 12 12 11 11 10 10 9 8 7 7 6 6 8 9 6 5 12 17 18 21 21 19 16 16 17 17 15 16 17 14 11 12 15 19 23 25 26 26 27 25 22 23 24 23 24 26 28 32 34 32 31 35 39 41 42 42 42 39 38 39 40 40 36 31 29 29 29 27 24 23
21 21 20 19 18 18 17 17 16 16 15 14 13 12 11 11 10 10 10 10 10 9 8 7 6 4 4 4 6 7 5 9 15 17 18 21 21 18 16 18 18 17 17 17 16 15 15 17 19 22 26 26 25 27 25 21 22 24 23 24 27 28 30 31 30 31 34 37 41 43 43 42 40 38 40 43 43 40 36 32 31 30 27 27 28
23 22 21 20 19 18 17 17 16 16 15 14 13 13 12 11 11 10 9 9 8 8 8 8 7 5 4 3 2 5 6 8 14 17 16 18 20 19 17 18 19 18 16 15 15 16 16 18 19 22 25 25 25 27 25 21 22 25 25 26 28 29 28 28 30 32 33 36 41 42 42 42 41 39 41 44 44 43 39 35 33 32 30 28 29
23 22 21 20 19 18 18 17 16 15 14 13 13 12 11 11 11 11 10 8 8 7 7 7 6 6 5 4 2 4 6 8 13 17 16 16 17 18 17 18 19 19 17 15 15 16 16 18 20 23 24 22 23 26 25 21 24 28 28 28 28 27 28 29 30 30 32 36 39 40 41 43 41 40 41 43 44 44 42 37 34 33 32 29 25
23 22 22 20 19 19 18 17 15 14 13 13 13 12 11 10 10 10 10 9 8 8 7 7 6 6 6 6 5 4 5 7 12 16 15 15 15 16 17 17 17 18 16 14 14 15 17 20 21 23 23 20 20 26 26 21 24 29 29 27 26 26 28 30 30 30 31 35 38 38 39 42 41 38 39 41 43 44 42 38 36 34 33 30 25
24 23 22 21 20 19 17 16 14 14 13 12 12 11 10 10 9 9 9 9 9 8 7 6 6 6 6 7 7 6 6 7 11 13 14 13 13 14 16 16 16 15 14 13 15 17 19 21 20 21 21 19 20 27 26 20 23 30 29 26 27 27 28 29 30 30 30 33 35 36 37 40 40 38 40 41 41 42 41 39 38 37 34 31 27
24 23 22 21 20 18 17 15 14 13 13 12 11 11 10 10 9 8 7 7 7 7 7 6 6 6 5 6 7 7 6 6 8 10 12 12 12 13 14 15 15 15 13 13 17 19 20 20 18 18 19 19 21 27 27 21 23 29 29 26 28 29 28 29 31 30 29 30 33 34 35 38 39 39 39 39 40 42 43 42 43 43 40 35 31
24 23 21 21 20 18 17 16 14 13 13 12 11 10 9 9 9 9 8 7 7 6 6 6 6 5 5 5 6 6 6 6 7 9 11 12 13 13 14 14 15 15 14 14 18 20 19 19 19 18 18 19 20 25 28 24 23 29 29 27 28 31 29 30 31 31 29 30 32 32 34 37 38 39 39 38 38 41 42 42 44 45 43 37 33
24 23 22 21 20 18 17 16 14 13 12 11 11 10 9 9 8 7 7 7 7 6 6 6 6 5 5 5 5 6 5 6 7 9 11 12 13 13 14 14 15 16 16 17 21 21 20 19 20 19 18 19 20 23 27 26 24 28 30 26 27 32 30 29 31 32 30 31 32 32 34 36 37 39 40 38 37 40 41 40 41 43 42 40 35
23 23 22 21 19 18 17 16 15 13 12 11 9 9 9 9 6 6 6 6 7 8 7 6 6 6 5 4 4 5 5 4 7 9 10 10 11 12 13 14 15 16 18 20 21 21 19 18 19 19 19 21 21 22 26 26 23 27 31 27 26 31 31 28 31 33 32 32 33 33 35 37 35 36 39 38 36 39 41 39 38 40 40 41 40
24 22 21 20 19 18 18 17 16 14 12 12 11 10 11 10 7 6 6 6 8 9 7 6 6 6 5 4 3 4 3 3 6 7 8 8 8 10 11 13 14 15 17 20 21 21 18 17 19 19 19 21 22 22 25 26 24 25 30 29 27 30 31 29 31 33 33 34 35 34 35 36 35 35 38 38 36 38 40 39 36 38 40 39 39
23 22 21 19 19 19 19 18 16 14 14 15 15 14 13 10 7 7 7 7 6 6 5 6 7 7 6 4 2 3 2 2 4 6 6 6 6 8 9 11 13 14 16 18 19 18 17 16 18 19 18 20 22 22 24 26 25 25 28 29 28 29 31 30 30 33 34 33 34 36 35 35 35 34 35 37 37 36 39 39 35 35 39 38 36
23 22 20 19 19 19 18 17 15 14 14 14 15 14 12 10 9 9 9 8 6 5 5 5 7 8 6 3 2 2 1 3 4 5 6 5 5 7 9 10 12 13 13 16 17 16 15 16 18 18 18 20 21 22 23 25 25 24 27 29 28 28 30 31 31 34 34 32 34 38 37 34 35 34 32 35 37 36 36 39 37 35 36 37 34
23 21 19 21 21 20 17 16 16 16 15 15 15 15 15 14 13 12 11 11 9 8 6 6 6 6 5 3 2 1 1 3 4 5 5 5 5 8 11 12 12 11 11 12 14 14 14 15 17 18 19 20 21 22 22 23 24 24 26 27 27 28 30 31 31 34 35 32 33 38 38 34 35 35 32 31 34 35 35 36 37 35 34 34 34
23 21 21 23 23 19 16 17 18 18 18 19 18 18 17 16 15 14 13 11 9 9 8 7 7 5 4 2 1 1 1 2 3 5 5 5 6 9 12 12 11 10 8 8 10 13 14 14 15 17 18 18 20 21 22 22 23 23 25 26 26 26 29 30 31 35 36 32 31 36 38 35 34 35 33 30 30 32 33 33 34 33 32 32 32
23 21 23 25 22 18 17 17 17 17 19 19 19 19 19 18 17 16 15 13 11 10 9 9 8 7 5 4 3 2 1 2 3 5 6 6 7 10 12 12 11 11 9 7 10 13 14 14 15 16 17 18 20 21 21 22 22 23 24 26 26 27 30 30 29 34 37 33 31 34 37 35 33 33 33 31 30 30 31 33 33 32 30 29 29
21 22 25 24 19 17 18 18 16 15 16 16 16 16 17 18 18 17 16 16 15 15 14 12 10 8 5 3 3 3 2 2 2 3 5 7 8 10 12 13 13 12 10 8 10 13 14 13 14 15 16 17 19 20 20 21 22 22 23 25 25 27 31 30 29 32 35 33 31 34 36 35 34 33 33 32 30 29 29 31 32 31 29 29 28
21 24 27 24 18 16 18 18 16 16 16 15 13 12 12 13 14 15 15 15 16 16 17 16 12 8 7 6 3 2 1 1 3 4 4 5 7 10 12 14 14 12 10 9 10 12 12 12 13 14 15 16 17 18 19 20 20 21 22 23 24 26 29 30 29 31 33 32 31 33 35 35 34 33 32 31 31 30 28 28 30 31 30 29 28
21 24 27 23 17 16 18 18 16 16 16 14 12 12 11 11 11 11 12 13 13 12 14 17 15 11 10 10 8 5 3 3 5 7 7 6 7 9 12 14 13 10 9 9 9 10 11 12 12 13 13 15 16 17 18 19 19 20 21 22 23 24 26 27 28 30 32 31 30 32 33 34 34 34 32 30 30 31 30 28 28 29 30 29 27
22 23 25 23 18 16 17 17 15 15 15 14 12 11 12 11 10 10 9 9 8 6 7 12 16 16 14 13 11 7 4 5 8 10 10 8 7 8 10 11 10 8 8 8 9 9 9 10 11 12 12 13 15 15 16 17 18 20 21 21 23 24 25 25 26 28 30 30 29 30 31 31 32 33 33 29 28 30 31 30 28 27 28 29 27
22 24 25 23 19 17 16 16 15 14 14 12 11 11 12 11 11 10 9 8 8 7 6 8 11 13 13 12 10 8 7 8 9 11 10 9 7 6 9 9 7 6 7 7 8 8 8 9 10 11 11 12 13 14 15 15 17 19 20 20 21 24 24 24 25 27 28 28 29 29 30 30 29 30 32 31 28 28 29 30 29 27 25 26 27
22 26 27 22 18 16 16 17 17 16 14 12 11 11 11 10 10 9 9 9 9 9 10 10 9 9 9 10 11 10 8 7 7 9 11 10 7 6 8 8 7 7 7 7 7 7 7 8 8 9 10 11 12 13 13 14 15 17 18 18 19 22 23 23 24 25 26 27 27 28 30 30 28 28 30 31 29 27 26 27 28 28 26 24 25
21 26 28 23 16 15 16 17 17 17 16 15 13 12 11 11 11 10 10 10 10 10 10 10 10 9 8 9 11 10 8 6 6 9 11 11 9 9 9 7 7 8 8 7 7 7 7 7 8 8 9 10 11 12 13 13 14 15 16 16 17 19 21 22 23 24 24 25 26 27 29 30 28 27 28 30 29 28 27 25 25 27 27 25 23
20 25 28 24 16 14 15 16 16 16 16 16 15 13 12 12 12 12 10 9 9 9 10 10 10 9 10 10 11 10 9 8 8 10 11 11 11 11 9 8 8 9 9 7 6 7 7 7 7 8 9 10 10 11 12 13 14 14 14 15 15 16 19 21 22 22 23 25 24 24 27 28 27 26 27 28 28 28 28 27 24 24 26 26 22
21 25 27 23 17 13 13 15 15 15 16 17 15 13 11 10 10 11 11 10 10 9 9 9 9 9 10 10 10 9 8 8 9 11 12 13 13 12 9 8 9 9 9 7 7 7 8 8 8 8 9 9 10 11 11 12 13 13 13 13 13 13 16 19 20 20 22 24 23 22 24 26 25 25 26 27 27 27 28 28 26 22 22 24 23
23 25 25 23 19 15 13 14 15 14 14 15 14 12 12 11 10 9 10 10 11 12 11 11 11 10 10 11 11 10 9 10 11 12 14 14 14 12 11 11 11 10 10 10 9 8 9 9 10 10 10 10 10 11 11 11 12 13 13 13 12 10 12 17 19 18 19 22 21 20 22 24 23 23 25 25 25 26 27 28 28 25 20 19 21
22 25 25 22 21 18 15 14 15 14 14 14 14 13 12 11 11 11 10 11 11 12 13 13 13 12 12 13 14 13 12 13 13 14 14 13 12 12 12 12 11 11 11 11 10 9 10 11 11 12 12 13 13 12 11 11 11 12 12 12 12 11 11 14 17 18 18 19 19 18 19 21 22 22 22 23 23 24 25 25 26 26 23 20 19
19 21 23 23 22 20 18 15 14 14 13 14 14 14 13 13 13 13 12 12 11 12 12 13 14 13 13 14 15 15 15 14 15 15 14 13 12 12 12 12 12 12 11 10 10 10 10 12 13 14 15 16 15 13 13 14 13 11 11 12 13 13 12 12 16 18 18 17 17 16 16 18 20 20 20 21 21 21 22 22 23 24 24 22 19
17 18 20 22 22 21 20 19 18 16 15 14 14 14 14 14 14 14 14 14 13 13 12 12 13 14 14 15 16 16 16 16 16 15 14 13 13 14 13 13 13 13 13 12 12 12 12 13 14 15 15 15 15 15 17 17 15 12 11 12 13 14 15 14 16 18 18 16 15 15 14 15 18 19 19 19 20 20 20 21 21 21 22 21 18
18 17 17 19 20 21 20 20 20 18 17 15 15 15 14 14 14 14 15 16 17 16 15 14 14 14 14 15 15 15 15 16 15 15 15 15 14 14 14 14 14 14 14 14 14 15 15 15 15 16 17 17 18 19 20 19 16 14 13 13 14 16 17 16 16 18 19 16 14 14 13 12 15 18 18 17 18 18 19 19 19 20 22 21 17
19 18 17 17 18 18 18 18 17 17 16 15 14 15 14 14 14 14 14 14 16 16 17 17 16 16 16 16 16 16 17 17 16 16 16 15 14 15 18 19 18 16 16 16 16 16 16 16 17 18 19 19 20 21 21 20 19 17 16 15 16 17 18 18 18 19 20 17 14 14 13 12 12 15 17 17 16 16 18 19 18 18 21 21 17
19 19 18 18 17 16 16 16 15 16 16 16 15 15 15 14 15 15 15 15 14 14 15 16 17 17 17 17 17 18 18 17 16 16 16 15 15 17 20 19 17 17 17 17 17 17 17 17 17 18 19 19 21 23 23 22 21 20 18 17 18 19 20 20 20 20 20 18 15 13 13 13 13 13 15 16 15 15 16 18 18 17 19 20 17
14 16 16 17 17 16 16 16 15 15 15 15 15 16 16 15 16 16 16 17 16 16 16 16 16 16 16 16 17 17 17 17 17 17 17 16 17 18 19 19 19 19 18 17 17 18 17 17 17 19 20 20 21 22 23 23 24 24 22 20 19 20 21 21 21 21 20 19 16 13 13 14 14 13 14 15 15 14 15 16 17 16 18 18 16
Wind_Direction
122 123 122 121 120 119 117 115 113 111 110 107 103 99 97 95 92 87 84 80 77 74 70 66 61 58 54 49 46 41 38 36 35 35 35 35 35 33 32 31 31 30 27 25 24 20 18 19 21 18 14 12 8 4 1 356 352 350 346 342 338 336 333 325 315 310 310 312 313 311 313 315 314 315 316 314 315 315 314 311 309 308 302 292 286
124 124 123 121 118 117 114 111 111 109 107 104 102 99 96 95 91 87 83 79 77 74 71 68 63 59 54 49 44 40 36 34 34 34 34 35 36 34 33 32 31 30 27 26 25 22 21 22 23 18 13 11 8 4 0 356 352 348 346 344 337 334 333 325 318 314 312 313 315 312 313 315 313 312 313 313 313 313 312 309 307 306 302 295 288
124 123 122 119 117 115 112 111 109 107 105 102 100 98 96 94 91 89 86 81 79 76 72 70 65 60 55 48 43 39 34 33 34 34 32 33 34 34 32 33 32 29 28 29 27 24 24 24 21 16 12 10 7 3 359 354 350 346 342 340 335 330 330 327 321 316 313 313 314 315 315 315 312 312 313 311 311 311 310 310 308 305 302 298 292
122 121 121 119 118 116 113 112 110 106 104 100 99 97 95 93 91 89 88 85 82 79 74 71 65 60 55 48 42 37 32 33 38 38 33 32 35 35 31 31 33 31 30 31 28 25 26 26 22 16 12 11 6 1 356 351 347 343 338 335 332 329 327 325 321 317 314 312 313 315 316 315 313 314 315 313 311 310 309 310 309 304 300 297 293
122 121 121 120 118 116 114 112 109 105 102 99 97 96 93 92 90 88 87 86 84 81 76 72 66 61 55 48 41 36 33 34 42 49 44 36 35 34 30 29 32 33 32 30 28 27 28 27 24 18 13 11 5 357 352 349 344 340 335 332 330 327 325 323 321 319 316 313 313 315 316 315 315 315 316 315 314 313 311 308 307 305 301 301 299
123 123 123 121 118 116 114 111 107 104 102 98 96 95 94 92 90 89 88 87 85 82 77 73 68 62 56 49 42 37 34 35 43 55 56 45 39 34 31 32 34 34 32 29 28 27 28 29 26 20 14 9 2 353 349 346 342 337 333 331 330 328 325 323 322 320 318 315 314 316 317 318 317 316 317 317 316 315 314 311 309 309 310 310 309
125 127 126 121 118 116 112 109 106 103 100 99 96 95 94 93 92 90 91 90 88 85 81 76 71 64 57 50 42 38 35 34 39 51 57 52 44 37 32 32 34 34 30 30 30 28 28 29 25 18 13 6 360 353 347 343 339 335 333 331 330 329 326 323 320 319 318 317 316 316 317 317 316 315 316 318 316 313 314 315 314 313 312 310 308
128 128 126 121 117 114 110 107 106 103 102 99 97 96 95 94 93 91 91 91 89 88 85 80 74 66 58 48 40 37 35 33 36 45 52 53 47 40 34 32 33 32 29 29 30 29 28 27 21 15 10 7 2 353 346 341 338 335 333 332 330 326 322 319 316 317 318 319 318 317 317 317 316 315 315 317 316 314 314 314 311 309 308 305 304
130 129 126 121 117 114 111 109 107 104 103 100 98 98 97 96 95 92 90 89 88 88 86 82 76 68 59 48 38 36 35 34 34 39 45 47 45 39 34 32 32 30 29 29 29 28 28 25 17 11 8 6 360 352 349 347 344 338 334 333 331 325 320 318 319 321 322 322 321 320 318 317 316 316 316 316 313 312 311 309 305 304 304 302 300
133 130 126 122 120 118 114 112 110 106 105 103 101 100 97 97 95 92 89 87 87 87 85 82 76 67 60 50 38 35 34 35 39 41 42 39 37 37 34 32 35 31 28 29 28 29 28 21 14 10 8 4 358 356 358 356 351 345 341 338 334 330 325 323 323 323 324 322 321 321 318 315 316 316 315 313 311 309 309 308 306 305 305 303 297
134 131 127 125 123 120 118 115 111 108 107 105 103 100 96 95 93 91 90 87 87 88 85 83 79 70 60 49 41 36 33 34 43 50 50 42 35 37 35 30 33 31 28 28 28 29 25 16 12 11 8 3 360 1 1 359 355 352 350 347 341 336 332 328 324 322 322 320 320 321 318 314 315 316 313 312 311 309 307 306 304 303 302 299 296
135 131 128 128 125 122 120 115 110 109 107 105 103 100 98 96 93 92 91 89 88 87 85 85 83 76 60 45 40 38 33 33 42 50 54 48 38 39 37 31 32 27 23 24 29 30 23 13 10 10 8 4 0 359 358 358 359 355 350 348 344 340 338 333 329 328 329 326 322 321 318 314 315 314 312 312 310 308 305 300 296 294 292 289 288
136 132 130 129 125 121 117 113 110 109 107 107 106 103 101 100 97 96 93 91 90 87 85 85 82 79 63 42 38 39 34 32 37 44 47 42 39 44 41 32 30 26 18 17 25 30 22 16 13 7 5 2 358 356 355 357 359 355 349 347 342 339 338 336 334 334 333 328 321 317 316 313 311 311 311 311 309 306 304 299 294 291 286 283 283
135 131 129 126 122 120 118 116 116 116 114 112 110 107 106 105 102 100 96 92 89 86 85 83 79 80 70 43 38 40 35 31 34 39 41 39 40 47 42 27 24 26 18 11 20 31 28 25 19 9 4 360 355 355 353 354 358 355 348 348 345 340 338 336 336 335 333 329 322 317 318 317 313 312 312 311 307 304 302 298 294 290 285 283 281
133 130 128 126 125 126 125 124 123 122 121 117 113 111 109 107 104 101 98 94 91 88 86 83 79 81 77 48 39 41 36 30 34 40 40 43 44 40 31 18 16 24 18 12 23 35 34 35 27 15 7 357 354 356 353 351 355 354 344 345 348 345 341 339 338 334 333 333 328 323 323 323 319 316 315 313 309 307 304 299 294 290 286 283 281
132 132 132 132 132 131 130 129 126 123 121 117 113 111 108 106 104 101 99 96 92 91 89 84 80 79 77 51 36 37 32 27 31 41 41 43 43 34 22 13 9 8 10 13 26 29 27 34 28 17 7 357 354 358 355 349 353 354 346 344 348 347 344 343 343 340 336 334 332 328 326 326 325 322 320 318 315 313 311 305 299 293 286 282 280
137 138 138 137 136 134 132 130 126 124 122 117 113 112 109 107 106 104 103 102 99 99 93 88 84 79 79 64 30 26 25 22 28 40 41 42 43 33 20 12 6 360 1 5 14 20 17 23 21 12 3 357 356 359 357 350 351 354 348 345 348 349 347 346 345 345 342 339 337 335 332 330 330 329 328 326 323 321 316 310 305 300 291 284 282
141 141 140 139 137 136 133 130 128 124 121 117 114 112 110 108 107 106 108 108 109 111 106 100 94 81 77 73 53 23 15 17 26 40 41 40 44 34 20 12 8 2 359 356 358 12 11 8 9 4 357 354 355 359 358 351 350 354 350 347 349 349 349 347 344 343 343 343 343 342 339 337 335 334 335 333 331 329 321 311 310 307 296 288 286
144 142 141 140 139 137 133 130 128 124 121 119 118 115 113 114 115 116 117 114 113 114 113 115 114 98 85 75 63 54 21 13 23 37 39 37 40 37 23 13 8 2 357 351 352 2 3 358 357 355 354 353 352 356 359 351 350 354 351 347 348 348 349 349 345 341 342 343 345 344 343 342 339 338 339 339 339 337 329 320 318 311 301 295 291
143 142 141 140 138 136 133 130 127 124 123 121 119 117 116 117 119 120 119 116 115 116 114 114 119 119 120 100 65 55 40 16 20 32 36 33 33 33 27 17 9 2 354 350 350 354 354 353 349 347 351 352 351 355 357 352 350 351 347 344 345 345 348 351 348 345 343 343 345 345 344 344 343 342 344 344 345 342 335 329 326 320 311 301 294
143 142 140 140 138 134 133 131 127 126 124 122 120 119 116 115 115 111 111 114 120 129 132 129 128 124 125 139 82 43 45 29 20 24 31 29 26 26 23 17 11 5 354 349 351 351 349 347 341 340 345 348 351 355 352 348 352 351 343 341 344 345 347 347 346 346 346 345 345 345 345 345 345 346 347 347 346 345 340 336 334 332 326 313 304
143 142 141 139 137 134 133 131 128 127 127 126 125 124 122 122 120 116 117 120 122 130 135 133 136 133 119 116 83 31 41 34 17 15 23 26 22 20 18 14 12 7 356 348 350 348 343 337 333 337 343 345 351 354 348 346 356 353 342 341 347 350 349 345 344 347 347 347 347 345 346 347 346 346 348 347 346 347 345 341 341 341 340 333 326
143 143 141 139 136 135 134 132 131 130 131 131 130 130 131 131 132 135 137 136 135 138 139 133 132 131 115 100 82 48 37 27 11 8 15 20 18 18 16 11 10 8 1 353 349 342 335 332 330 337 344 347 351 351 346 349 1 355 345 345 351 353 351 349 349 350 349 349 349 347 348 348 346 345 347 347 347 348 348 347 347 349 351 351 348
144 143 141 139 138 137 136 135 136 136 137 138 135 137 140 140 146 154 154 149 146 142 138 134 129 126 117 102 89 70 50 25 7 4 9 12 13 16 14 9 9 13 10 0 351 342 336 335 334 340 349 352 351 347 343 351 2 356 349 352 357 355 355 356 355 352 350 350 350 349 348 349 347 346 347 348 348 350 351 353 354 357 1 2 1
144 142 142 141 141 141 139 139 141 142 144 145 143 146 151 148 146 148 145 143 141 135 131 128 122 118 115 107 95 78 59 33 11 3 4 9 14 16 14 9 11 16 13 358 350 347 343 339 338 344 352 356 354 349 346 351 360 357 352 355 359 358 359 1 358 352 350 350 349 348 348 348 349 350 349 349 352 354 356 357 359 4 8 9 8
144 145 145 146 146 145 143 144 147 149 151 151 151 156 161 158 155 153 148 141 134 128 125 122 115 110 104 102 102 90 63 30 10 5 6 13 20 21 17 14 14 16 9 353 349 350 348 347 350 353 356 358 356 355 351 349 356 359 356 356 2 2 1 3 0 354 350 349 348 348 348 348 350 352 353 355 357 358 358 358 0 5 9 9 9
147 148 148 149 149 148 148 149 151 156 159 159 159 161 161 155 150 144 138 136 136 136 130 118 112 108 97 88 93 93 70 24 4 7 12 18 24 24 20 15 11 9 2 351 349 350 349 352 358 0 360 358 359 359 356 352 356 359 354 354 4 4 1 3 2 356 350 349 347 348 349 349 351 354 357 359 1 1 0 360 1 4 9 12 13
151 151 151 152 152 151 152 152 154 161 163 156 154 157 154 147 135 121 111 108 114 120 121 113 99 90 92 92 80 78 68 16 357 4 11 16 20 20 17 11 6 3 355 346 345 349 350 354 358 360 1 1 359 359 358 354 355 359 355 354 2 4 1 2 3 357 352 350 349 349 351 352 353 356 359 1 3 3 3 2 3 5 9 16 18
153 152 153 154 154 152 153 157 163 165 151 131 121 122 126 130 137 141 134 124 115 113 118 126 113 93 96 108 94 79 66 357 347 3 10 12 12 8 4 360 357 355 350 343 340 344 349 354 357 358 1 2 358 357 357 353 352 358 359 356 358 2 3 3 2 358 353 351 351 349 351 353 355 358 2 4 5 6 6 5 5 7 11 16 19
154 154 156 157 154 153 159 169 173 164 143 127 121 117 114 116 128 141 143 146 147 140 140 151 145 120 106 114 142 129 93 348 348 7 13 13 10 358 350 347 345 344 344 342 341 343 346 353 358 359 1 2 360 358 358 354 353 358 359 356 356 1 3 2 1 358 353 352 353 351 350 353 356 359 4 7 6 6 8 8 7 9 12 15 18
155 157 159 156 154 159 168 175 172 159 144 138 136 131 126 122 121 124 128 132 141 144 140 151 163 158 149 161 189 154 69 356 357 10 11 13 7 351 342 339 338 338 339 339 340 345 352 356 358 359 1 3 2 359 358 357 356 358 358 356 356 1 1 360 360 358 354 353 355 355 353 354 358 360 4 9 9 8 9 11 12 12 13 15 18
157 159 158 154 157 166 171 170 164 155 148 148 149 148 147 145 139 135 134 129 125 123 121 129 154 172 183 197 210 218 340 344 359 12 12 5 352 343 339 336 334 336 339 337 337 344 356 0 359 358 360 2 1 358 358 359 358 359 359 356 356 0 0 358 358 357 355 354 356 356 355 355 358 1 4 9 13 12 12 13 14 14 15 18 21
159 159 155 155 164 174 173 167 166 162 158 160 162 162 163 162 158 155 154 149 139 134 130 127 127 127 125 126 123 313 315 350 15 26 27 12 355 347 343 339 340 346 349 350 348 349 354 0 2 359 359 1 359 358 359 359 360 2 1 356 356 358 358 356 357 358 357 355 357 358 357 356 359 2 4 9 14 16 16 16 17 17 17 19 22
160 158 154 158 171 178 172 171 175 172 169 172 177 180 179 175 170 167 167 170 176 177 170 159 149 137 118 104 96 74 62 67 48 40 39 26 7 353 345 343 351 359 1 7 5 355 352 359 4 0 358 1 360 358 359 1 1 3 2 357 356 357 356 356 359 359 357 356 358 360 358 358 0 4 5 8 12 16 19 19 19 20 20 20 21
160 157 156 164 176 177 171 174 178 177 177 182 187 189 182 173 173 178 178 181 192 197 194 190 182 172 164 138 111 98 79 59 31 23 32 23 2 348 341 340 345 353 1 10 8 358 353 358 4 0 359 1 0 358 359 1 2 3 2 359 358 357 355 356 359 360 358 357 357 359 360 360 2 5 7 9 11 15 19 22 23 24 25 24 24
161 158 160 170 181 177 172 176 180 178 181 185 187 183 170 165 176 186 185 190 202 205 201 202 201 193 194 200 191 183 216 334 319 309 335 356 340 325 326 327 327 336 354 4 1 357 356 358 0 360 359 1 1 359 0 2 2 2 2 1 360 358 357 357 359 359 360 359 358 358 0 1 2 4 7 10 13 14 18 23 27 28 29 29 28
162 158 162 173 185 180 173 178 185 184 181 182 185 179 169 171 185 191 188 194 205 206 201 198 198 203 217 221 216 220 253 299 298 286 289 304 305 305 312 312 308 318 345 355 351 352 355 356 357 359 359 360 359 358 360 2 1 360 0 1 1 360 358 359 359 359 360 1 359 359 359 1 2 3 4 9 14 14 15 21 27 30 33 34 33
163 161 166 176 184 183 178 178 182 180 176 179 186 180 173 179 193 200 203 201 193 193 203 195 191 202 224 230 222 220 248 283 285 281 280 279 281 296 308 306 300 314 338 343 341 345 351 352 353 355 356 357 356 356 357 360 360 358 358 360 1 1 1 2 1 0 0 0 360 359 359 0 3 4 3 6 12 15 16 18 22 28 34 37 37
165 164 173 180 183 183 180 173 170 170 171 180 189 185 183 189 193 196 209 210 187 186 216 219 208 216 227 222 208 208 227 252 271 283 285 277 271 289 302 301 302 316 325 325 330 337 343 346 348 350 351 351 351 350 351 353 355 355 357 358 359 1 3 3 1 1 1 360 358 359 360 0 4 6 4 4 9 15 18 19 21 25 30 36 40
166 165 175 183 184 183 181 172 171 176 181 187 195 194 191 195 198 200 212 220 209 201 211 222 232 240 229 198 181 187 214 249 280 293 292 284 275 278 286 289 299 307 308 312 320 326 332 337 339 340 342 343 344 345 344 344 347 351 354 356 357 360 3 3 2 2 3 1 360 0 1 1 5 8 7 5 7 12 17 20 21 24 27 33 40
165 164 175 184 184 182 182 175 174 182 187 192 203 209 201 197 202 211 216 218 217 214 216 224 239 250 237 209 196 205 232 271 289 284 281 282 280 276 275 279 291 296 294 299 309 314 317 322 325 328 332 333 335 338 339 337 339 344 348 351 354 356 359 1 3 4 4 3 3 4 3 3 5 7 8 7 6 8 13 18 20 23 26 29 38
163 164 175 184 183 183 186 183 180 183 188 193 204 214 210 200 200 208 218 223 225 224 224 229 239 242 232 225 226 232 248 274 280 271 270 274 274 271 270 272 282 287 284 284 297 304 302 304 309 315 320 323 326 330 333 334 334 336 339 343 347 352 356 359 3 5 3 3 6 6 5 5 6 6 7 8 6 5 7 11 16 23 27 28 34
161 163 175 183 185 186 189 188 187 188 189 193 201 210 215 211 206 207 212 220 226 230 232 235 241 238 226 219 223 231 248 273 277 267 262 262 260 260 265 272 278 282 279 278 286 294 292 293 298 300 303 310 315 317 321 326 328 328 330 334 338 343 349 356 3 5 0 1 6 8 5 5 7 6 5 7 6 3 3 5 9 18 27 28 31
162 166 175 181 185 190 195 194 194 195 194 197 202 207 211 217 220 219 218 219 221 224 228 235 242 242 229 218 217 228 252 271 268 257 254 256 257 261 271 276 274 271 271 272 277 281 281 284 288 292 296 300 302 304 308 315 319 321 322 324 324 325 335 350 1 3 358 357 3 6 4 4 7 6 6 6 4 2 1 2 2 6 14 21 25
166 167 174 180 186 194 200 199 199 200 199 201 206 210 212 217 223 226 230 232 227 222 221 227 235 240 233 223 221 230 246 255 251 247 249 255 261 266 272 273 271 269 267 266 268 272 276 278 280 284 289 292 292 294 298 300 305 313 317 316 312 307 315 337 351 355 354 356 0 3 2 1 3 5 6 6 4 1 360 0 0 0 2 8 16
177 170 171 177 185 195 202 202 203 206 204 202 205 210 213 216 221 225 229 234 235 231 226 225 230 235 236 232 230 235 242 248 250 251 254 258 263 266 267 267 270 271 270 268 269 270 272 277 280 282 286 291 293 293 294 295 298 304 309 310 305 298 298 316 336 344 348 352 356 359 360 358 358 0 3 4 5 3 360 358 359 1 0 1 6
189 179 174 177 184 192 199 202 205 209 210 208 209 213 215 216 219 222 226 230 236 239 237 234 235 239 240 239 238 238 240 245 250 253 255 258 261 263 264 265 266 267 266 267 270 270 270 276 281 282 284 290 291 287 289 295 297 295 296 299 297 292 292 302 319 331 338 344 350 355 358 354 351 354 358 1 3 4 1 357 357 359 357 356 359
191 190 186 184 186 192 197 201 203 206 209 212 214 216 218 221 223 223 224 225 227 230 233 237 242 246 248 249 251 251 251 253 254 254 256 259 261 262 264 264 264 263 262 261 262 265 269 273 276 276 278 281 281 281 285 292 293 288 287 290 287 286 290 296 305 317 327 333 339 347 351 347 344 347 351 354 356 358 359 358 356 355 353 352 354
188 191 194 194 194 197 199 200 202 206 210 215 218 218 219 223 228 231 234 233 229 226 227 230 235 241 246 250 253 254 255 255 254 253 255 257 259 261 262 259 255 253 254 251 250 255 263 268 272 277 280 279 277 278 281 284 284 282 283 284 281 282 288 293 297 307 317 322 327 335 340 339 336 338 342 347 350 349 352 356 357 353 349 347 350
189 192 196 198 201 205 205 203 204 208 211 213 217 219 221 223 226 230 236 240 240 238 236 234 235 238 242 246 249 251 253 255 256 256 256 256 258 264 266 263 256 249 248 248 248 252 258 265 270 277 281 280 279 279 279 279 280 281 280 279 277 278 283 289 293 299 308 313 316 321 327 331 331 328 329 338 344 342 342 348 352 349 345 346 351
196 197 199 200 201 204 207 209 211 214 215 214 215 218 221 223 226 229 232 235 239 244 246 247 248 247 247 250 253 255 256 257 259 260 259 259 262 268 275 278 273 263 256 255 254 251 253 260 267 272 275 276 276 277 277 276 278 280 280 277 275 275 279 285 289 294 302 307 308 307 313 320 324 320 317 324 334 337 335 337 342 343 344 347 351